Satellite: NOAA-17
Catalog number: 27453
Epoch time:      12019.54227445
Element set:     567
Inclination:      098.3551 deg
RA of node:       054.0237 deg
Eccentricity:    0.0010964
Arg of perigee:   233.0413 deg
Mean anomaly:     126.9775 deg
Mean motion:   14.24384792 rev/day
Decay rate:       2.89e-06 rev/day^2
Epoch rev:           49745
Checksum:              320

Satellite: NOAA-18
Catalog number: 28654
Epoch time:      12019.51003830
Element set:      43
Inclination:      099.0263 deg
RA of node:       336.5133 deg
Eccentricity:    0.0013897
Arg of perigee:   213.8762 deg
Mean anomaly:     146.1532 deg
Mean motion:   14.11593249 rev/day
Decay rate:       3.75e-06 rev/day^2
Epoch rev:           34344
Checksum:              288

Satellite: NOAA-19
Catalog number: 33591
Epoch time:      12019.48445497
Element set:     232
Inclination:      098.8506 deg
RA of node:       321.2433 deg
Eccentricity:    0.0014938
Arg of perigee:   084.3212 deg
Mean anomaly:     275.9662 deg
Mean motion:   14.11279969 rev/day
Decay rate:       -4.3e-07 rev/day^2
Epoch rev:           15189
Checksum:              324

/EX
SB KEPS @ AMSAT  $ORB12019.M
Orbital Elements  12019.MISC

HR AMSAT ORBITAL ELEMENTS FOR MANNED AND MISCELLANEOUS SATELLITES
FROM WA5QGD FORT WORTH,TX January 19, 2012
Send SUBSCRIBE KEPS/UNSUBSCRIBE KEPS to majordomo@amsat.org only
BID: ORB12019.M
TO ALL RADIO AMATEURS BT

Satellite: HUBBLE
Catalog number: 20580
Epoch time:      12019.25301921
Element set:     925
Inclination:      028.4706 deg
RA of node:       044.4221 deg
Eccentricity:    0.0003386
Arg of perigee:   255.5194 deg
Mean anomaly:     104.4972 deg
Mean motion:   15.02106640 rev/day
Decay rate:      1.548e-05 rev/day^2
Epoch rev:           99216
Checksum:              267

Satellite: ISS
Catalog number: 25544
Epoch time:      12019.95123964
Element set:     852
Inclination:      051.6419 deg
RA of node:       150.6937 deg
Eccentricity:    0.0021741
Arg of perigee:   299.7667 deg
Mean anomaly:     159.1394 deg
Mean motion:   15.58830540 rev/day
Decay rate:     1.5195e-04 rev/day^2
Epoch rev:           75474
Checksum:              331

Satellite: CO-58
Catalog number: 28895
Epoch time:      12018.63830026
Element set:      76
Inclination:      097.9370 deg
RA of node:       251.3455 deg
Eccentricity:    0.0016728
Arg of perigee:   263.6475 deg
Mean anomaly:     096.2810 deg
Mean motion:   14.60447244 rev/day
Decay rate:       5.48e-06 rev/day^2
Epoch rev:           33168
Checksum:              325

Satellite: FALCON
Catalog number: 30776
Epoch time:      12019.66030452
Element set:     263
Inclination:      035.4324 deg
RA of node:       109.3477 deg
Eccentricity:    0.0001728
Arg of perigee:   164.2745 deg
Mean anomaly:     195.8026 deg
Mean motion:   15.06421842 rev/day
Decay rate:      3.357e-05 rev/day^2
Epoch rev:           26768
Checksum:              291

Satellite: MAST
Catalog number: 31126
Epoch time:      12019.55519923
Element set:     362
Inclination:      097.8807 deg
RA of node:       039.3823 deg
Eccentricity:    0.0093097
Arg of perigee:   216.6993 deg
Mean anomaly:     142.7796 deg
Mean motion:   14.54009120 rev/day
Decay rate:       3.99e-06 rev/day^2
Epoch rev:           25252
Checksum:              315

Satellite: CAPE1
Catalog number: 31130
Epoch time:      12018.70531307
Element set:     373
Inclination:      097.8873 deg
RA of node:       035.0754 deg
Eccentricity:    0.0100861
Arg of perigee:   231.3900 deg
Mean anomaly:     127.8153 deg
Mean motion:   14.52736719 rev/day
Decay rate:       4.73e-06 rev/day^2
Epoch rev:           25192
Checksum:              274

Satellite: COMPASS
Catalog number: 32787
Epoch time:      12019.08222452
Element set:     200
Inclination:      097.8209 deg
RA of node:       083.6584 deg
Eccentricity:    0.0015212
Arg of perigee:   188.3387 deg
Mean anomaly:     171.7609 deg
Mean motion:   14.83411905 rev/day
Decay rate:      2.273e-05 rev/day^2
Epoch rev:           20155
Checksum:              287

Satellite: AAUSAT2
Catalog number: 32788
Epoch time:      12019.08186031
Element set:     190
Inclination:      097.8235 deg
RA of node:       083.9655 deg
Eccentricity:    0.0014988
Arg of perigee:   187.2382 deg
Mean anomaly:     172.8632 deg
Mean motion:   14.83681495 rev/day
Decay rate:      2.360e-05 rev/day^2
Epoch rev:           20157
Checksum:              323

Satellite: DO-64
Catalog number: 32789
Epoch time:      12019.05679726
Element set:     206
Inclination:      097.8327 deg
RA of node:       085.4494 deg
Eccentricity:    0.0014930
Arg of perigee:   186.0137 deg
Mean anomaly:     174.0896 deg
Mean motion:   14.84761562 rev/day
Decay rate:      2.791e-05 rev/day^2
Epoch rev:           20159
Checksum:              339

Satellite: CO-66
Catalog number: 32791
Epoch time:      12019.08571033
Element set:     194
Inclination:      097.8227 deg
RA of node:       083.5096 deg
Eccentricity:    0.0015475
Arg of perigee:   188.1135 deg
Mean anomaly:     171.9854 deg
Mean motion:   14.82934738 rev/day
Decay rate:      2.015e-05 rev/day^2
Epoch rev:           20149
Checksum:              320

